Location: Lecco
(45.8566°N, 9.3977°E)
Time: 04:50:49
(UTC+02:00)

Transit 4A - Pass Details

Date: 15 August 2020
Orbit: 863 x 982 km, 66.8° (Epoch: 23 September)

Event Time Altitude Azimuth Distance (km) Brightness Sun altitude
Rises 15:24:41 0° 326° (NNW) 3,629 10.9 49.5°
Reaches altitude 10° 15:28:30 10° 349° (N) 2,703 10.2 49.0°
Maximum altitude 15:32:05 15° 24° (NNE) 2,349 9.8 48.5°
Drops below altitude 10° 15:35:41 10° 59° (ENE) 2,730 10.1 48.0°
Sets 15:39:33 0° 81° (E) 3,684 10.7 47.5°
